Regional Weather Roundup
Issued by NWS Newport/Morehead, NC

Current Version | Previous Version | Text Only | Print | Product List | Glossary On
Versions: 1 2 3 4 5 6 7 8 9 10 11 12 13 14 15 16 17 18 19 20 21 22 23 24 25 26 27 28 29 30 31 32 33 34 35 36 37 38 39 40 41 42 43 44 45 46 47 48 49 50
000
ASUS42 KMHX 281610
RWRMHX
WEATHER ROUNDUP FOR EASTERN NORTH CAROLINA
NATIONAL WEATHER SERVICE NEWPORT/MOREHEAD CITY NC
1100 AM EST WED JAN 28 2015

NOTE: "FAIR" INDICATES FEW OR NO CLOUDS BELOW 12,000 FEET
WITH NO SIGNIFICANT WEATHER AND/OR OBSTRUCTIONS TO VISIBILITY

NCZ015>017-031-032-045>047-102-103-281700-
NORTH COAST

CITY           SKY/WX    TMP DP  RH WIND       PRES   REMARKS
EDENTON        SUNNY     35  16  46 N12G18    30.22R
ELIZABETH CITY SUNNY     34  16  47 NW16      30.21R
KITTY HAWK     SUNNY     34  22  61 N14G21    30.17R
MANTEO         SUNNY     34  21  60 N16       30.19R

$$

NCZ045>047-081-094-103-104-281700-
CENTRAL COAST

CITY           SKY/WX    TMP DP  RH WIND       PRES   REMARKS
FRISCO         PTSUNNY   37  27  67 N9G22     30.16R
SWANQUARTER    NOT AVBL

$$

NCZ095-097-098-100-101-281700-
SOUTHERN COAST

CITY           SKY/WX    TMP DP  RH WIND       PRES   REMARKS
BEAUFORT       SUNNY     38  22  52 N14       30.19R
CEDAR ISLAND   NOT AVBL
JACKSONVILLE   SUNNY     38  19  46 N15       30.21R
PINEY ISLAND     N/A    N/A N/A N/A MISG      30.19R
WILMINGTON     SUNNY     38  18  44 N14       30.22R


$$

NCZ011>013-027>030-043-044-078>080-089-090>093-098-281700-
COASTAL PLAIN

CITY           SKY/WX    TMP DP  RH WIND       PRES   REMARKS
AHOSKIE        SUNNY     34   9  35 N13G21    30.24S
CLINTON        SUNNY     38  17  43 N12       30.26R
ELIZABETHTOWN  SUNNY     38  16  41 N6        30.25R
GOLDSBORO      SUNNY     37  19  48 N10       30.23R
GREENVILLE     SUNNY     36  14  41 N12G17    30.24S
HAVELOCK       SUNNY     38  20  48 N13       30.21R
KENANSVILLE    SUNNY     37  17  45 N13G18    30.25R
KINSTON        SUNNY     37  18  44 N14       30.24R
NEW BERN       SUNNY     39  18  42 N15       30.22R
RICHLANDS      SUNNY     37  18  44 N10G17    30.23R
ROCKY MOUNT    SUNNY     38  14  37 N10       30.25R
WASHINGTON     SUNNY     36  16  45 N10G21    30.22S
WHITEVILLE     SUNNY     38  17  43 N8        30.25R

$$

AMZ130-135-150-152-154-156-158-170-250-252-270-ANZ085-086-088-633-658-670-281700-
MARINE OBSERVATIONS

STATION/POSITION TIME  TEMP    WIND        PRES    WAVE   SWELL
                       AIR SEA DIR/SP/G            HT/PER HT/PER
                 (UTC) (F)     (DEG/KT/KT) (MB)    (FT/S) (FT/S)
CHESAPEAKE LIGHT 1500   30     340/ 23/ 25 1022.1
64 E VA BEACH    1600   35 51  350/ 21/ 29 1019.7   11/13   8/13
DUCK             1600   32 41  340/ 18/ 23 1021.1
2 E DUCK         1600      42                N/A     7/14   3/14
10 NE DUCK       1600      46                N/A     9/14   5/14
OREGON INLET     1600   35 42  340/ 19/ 24 1021.4
13E OREGON INLT  1600      45                N/A    10/13   5/13
HATTERAS CG      1600   35 46   10/ 20/ 24 1021.5
DIAMOND BUOY     1600   39 65  360/ 23/ 29 1019.9    8/12   7/12
17 S OCRACOKE    NOT AVBL
CAPE LOOKOUT     1500   35      10/ 15/ 21 1021.3
BEAUFORT LAB     1600   36 46  360/ 12/ 16 1021.3
27 SE WRIGHTSVLE NOT AVBL
5 SE WRIGHTSVLE  1500   37 53   20/ 19/ 23 1022.6
225 S CAPE HAT   1528   57 71  310/ 17/ 25 1017.1   10/ 8   8/ 8
41 SE CHARLESTON 1600   40 67  340/ 19/ 27 1023.2    6/ 6   2/12

$$


USA.gov is the U.S. government's official web portal to all federal, state and local government web resources and services.